Regional Weather Roundup
Issued by NWS Albany, NY

Home | Current Version | Previous Version | Text Only | Print | Product List | Glossary On
Versions: 1 2 3 4 5 6 7 8 9 10 11 12 13 14 15 16 17 18 19 20 21 22 23 24 25 26 27 28
000
ASUS41 KALY 241510
RWRALY

NEW YORK STATE HOURLY WEATHER ROUNDUP
NATIONAL WEATHER SERVICE ALBANY NY
1100 AM EDT FRI OCT 24 2014

NOTE: "FAIR" INDICATES FEW OR NO CLOUDS BELOW 12,000 FEET WITH NO
SIGNIFICANT WEATHER AND/OR NO OBSTRUCTIONS TO VISIBILITY.

NYZ032-033-038>043-046>054-057>066-NYZ062>081-241600-
EAST


CITY           SKY/WX    TMP DP  RH WIND       PRES   REMARKS
ALBANY         LGT RAIN  46  43  89 NE6       29.86F FOG
GLENS FALLS    CLOUDY    45  43  93 SE3       29.85F
POUGHKEEPSIE   CLOUDY    54  44  69 N9        29.82S
NEWBURGH       PTSUNNY   54  46  76 N6        29.83F
MONTGOMERY     CLOUDY    56  42  59 N8G18     29.81F
WHITE PLAINS   CLOUDY    54  44  69 NW17G24   29.79F
ISLIP          LGT RAIN  51  48  89 NW14G23   29.77F FOG
NEW YORK CITY  PTSUNNY   56  43  61 NW13      29.81F
CENTRAL PARK   PTSUNNY   56  42  59 VRB5      29.84F
$$

NYZ005>009-017-018-044>046-055-056-241600-
CENTRAL


CITY           SKY/WX    TMP DP  RH WIND       PRES   REMARKS
FULTON         SUNNY     55  44  66 W14       29.94F
SYRACUSE       MOSUNNY   58  43  57 NW13      29.93F
ROME           PTSUNNY   50  44  80 W10       29.92F
ELMIRA         SUNNY     57  42  57 W10       29.95F
BINGHAMTON     SUNNY     52  41  66 NW14G23   29.90F
MONTICELLO     CLOUDY    48  43  81 NW16G22   29.86S
$$

NYZ026>034-041>043-241600-
NORTH


CITY           SKY/WX    TMP DP  RH WIND       PRES   REMARKS
WATERTOWN      SUNNY     55  38  52 NW5       29.93F
FORT DRUM      NOT AVBL
MASSENA        CLOUDY    51  43  74 CALM      29.93F
SARANAC LAKE   CLOUDY    41  39  93 N6        29.86S
PLATTSBURGH    CLOUDY    48  42  80 N10       29.87F
$$

NYZ001>004-010>016-019>021-241600-
WEST


CITY           SKY/WX    TMP DP  RH WIND       PRES   REMARKS
NIAGARA FALLS  MOSUNNY   49  43  80 NW7       30.03F
BUFFALO        MOSUNNY   50  41  71 SW8       30.03F
DUNKIRK        MOSUNNY   51  41  68 W10G18    30.06F
JAMESTOWN      SUNNY     48  37  66 NW8       30.05S
WELLSVILLE     SUNNY     51  38  60 N6        30.00F
ROCHESTER      MOSUNNY   51  43  74 W13       29.99F
PENN YAN       SUNNY     55  38  52 W9        29.97F
$$

             KEY
       WCI = WIND CHILL INDEX
       VSB = VISIBILITY
       HX  = HEAT INDEX
$$



USA.gov is the U.S. government's official web portal to all federal, state and local government web resources and services.